This is the latest recevied weather packets stored in our database for station/object N3WMC. If no packets are shown the sender has not sent any weather packets the latest 10 day(s).
| Time | Temp. | Humidity | Pressure | Rain* | Wind** | Luminosity | Snow |
|---|---|---|---|---|---|---|---|
| 1778182246 | 16.67° C | 38% | 1010.8 hPa | 0 mm | - | 172 W/m² | - |
| 1778181942 | 15.56° C | 39% | 1010.8 hPa | 0 mm | - | 680 W/m² | - |
| 1778181640 | 16.11° C | 39% | 1010.8 hPa | 0 mm | - | 167 W/m² | - |
| 1778181335 | 16.67° C | 38% | 1010.9 hPa | 0 mm | - | 139 W/m² | - |
| 1778181033 | 16.67° C | 40% | 1010.9 hPa | 0 mm | - | 682 W/m² | - |
| 1778180729 | 15° C | 41% | 1011.2 hPa | 0 mm | - | 168 W/m² | - |
| 1778180428 | 15° C | 42% | 1011.2 hPa | 0 mm | - | 128 W/m² | - |
| 1778180126 | 15.56° C | 40% | 1011 hPa | 0 mm | - | 149 W/m² | - |
| 1778179822 | 16.11° C | 41% | 1011 hPa | 0 mm | - | 139 W/m² | - |
| 1778179520 | 15° C | 42% | 1011.1 hPa | 0 mm | - | 755 W/m² | - |
| 1778179218 | 15.56° C | 42% | 1011.1 hPa | 0 mm | - | 155 W/m² | - |
| 1778178913 | 15.56° C | 39% | 1011.3 hPa | 0 mm | - | 222 W/m² | - |
| 1778178611 | 15.56° C | 40% | 1011.1 hPa | 0 mm | - | 181 W/m² | - |
| 1778178307 | 16.67° C | 40% | 1011.2 hPa | 0 mm | - | 200 W/m² | - |
| 1778178003 | 17.78° C | 38% | 1011 hPa | 0 mm | - | 403 W/m² | - |
| 1778177700 | 16.67° C | 38% | 1011.5 hPa | 0 mm | - | 751 W/m² | - |
| 1778177396 | 15.56° C | 40% | 1011.5 hPa | 0 mm | - | 771 W/m² | - |
| 1778177093 | 15.56° C | 42% | 1011.4 hPa | 0 mm | - | 366 W/m² | - |
| 1778176789 | 16.11° C | 42% | 1011.3 hPa | 0 mm | - | 185 W/m² | - |
| 1778176486 | 16.11° C | 40% | 1011.5 hPa | 0 mm | - | 829 W/m² | - |
| 1778176183 | 15.56° C | 41% | 1011.7 hPa | 0 mm | - | 240 W/m² | - |
| 1778175880 | 16.11° C | 41% | 1011.6 hPa | 0 mm | - | 240 W/m² | - |
| 1778175578 | 15° C | 40% | 1011.8 hPa | 0 mm | - | 880 W/m² | - |
| 1778175275 | 15° C | 39% | 1011.7 hPa | 0 mm | - | 199 W/m² | - |
| 1778174972 | 14.44° C | 41% | 1011.8 hPa | 0 mm | - | 504 W/m² | - |
* Rain latest hour (hover to see other rain measurements)
** Current wind speed in m/s (hover to see current wind gust speed)